Location: Regensburg
(48.4565°N, 10.3217°E)
Time: 15:39:46
(UTC+01:00)

Amateur Radio Satellites - All Passes

Search period start: 24 November 2017 15:09
Search period end: 25 November 2017 15:09
Location: Regensburg, 48.4565°N, 10.3217°E

Satellite Date Start Highest point End Downlink Frequencies (MHz)
Time Altitude Azimuth
BEESAT 24 Nov 15:11:48 15:16:01 30° 96° (E) 15:20:11 436.000
DOVE 4 24 Nov 15:23:43 15:28:09 29° 63° (ENE) 15:32:41 437.250
ITUPSAT 1 24 Nov 15:23:44 15:28:11 38° 98° (E) 15:32:36 437.325
M-CUBED/EXP-1 PRIME 24 Nov 15:24:34 15:25:11 10° 269° (W) 15:25:49 437.505
CUBESAT XI-V 24 Nov 15:25:15 15:28:02 15° 88° (E) 15:30:47 437.345
DX 1 24 Nov 15:36:35 15:39:44 20° 299° (WNW) 15:42:53 434.975-435.025
RS-15 24 Nov 15:58:52 16:01:58 11° 89° (E) 16:05:04 29.354- 29.394
XW-2B 24 Nov 16:08:21 16:09:52 12° 60° (ENE) 16:11:22 145.730 - 145.750
YUBILEINY 24 Nov 16:09:38 16:18:29 65° 76° (ENE) 16:27:14 435.215
AO-7 24 Nov 16:10:29 16:17:34 31° 266° (W) 16:24:43 .
ITAMSAT 1 24 Nov 16:11:25 16:15:46 26° 266° (W) 16:20:09 435.822/435.867
UKube-1 24 Nov 16:11:51 16:14:12 14° 302° (WNW) 16:16:32 .
NO-84 24 Nov 16:25:19 16:29:00 43° 342° (NNW) 16:32:57 435.350 FM
HO-68 24 Nov 16:27:07 16:32:12 21° 49° (NE) 16:37:17 435.675
CUTE-I 24 Nov 16:28:46 16:33:10 26° 60° (ENE) 16:37:34 437.470
KKS-1 24 Nov 16:31:16 16:33:53 15° 90° (E) 16:36:27 437.445
XW-2C 24 Nov 16:32:36 16:35:27 21° 65° (ENE) 16:38:21 145.795 - 145.815
LilacSat-2 24 Nov 16:38:42 16:41:51 26° 67° (ENE) 16:45:02 437.200
XW-2F 24 Nov 16:39:47 16:42:46 23° 66° (ENE) 16:45:46 145.980 - 146.000
MOZHAYETS 4 24 Nov 16:40:52 16:44:53 31° 294° (WNW) 16:48:54
BEESAT 24 Nov 16:49:28 16:53:50 37° 294° (WNW) 16:58:10 436.000
DOVE 4 24 Nov 17:00:38 17:05:35 47° 263° (W) 17:10:42 437.250
KAITUO 1B 24 Nov 17:01:06 17:04:22 30° 68° (ENE) 17:07:40 145.475/437.950
CUBESAT XI-V 24 Nov 17:01:13 17:05:54 71° 287° (WNW) 17:10:34 437.345
ITUPSAT 1 24 Nov 17:01:46 17:05:54 30° 296° (WNW) 17:10:01 437.325
XW-2D 24 Nov 17:24:47 17:28:31 81° 76° (ENE) 17:32:17 145.860 - 145.880
NUDT-PHONESAT 24 Nov 17:38:59 17:42:37 79° 76° (ENE) 17:46:18 437.300
XW-2B 24 Nov 17:39:47 17:43:30 71° 258° (WSW) 17:47:16 145.730 - 145.750
CUBEBUG 2 24 Nov 17:51:36 17:55:21 27° 66° (ENE) 17:59:02 437.445
CUTE 1.7 + AOD 2 24 Nov 17:53:53 17:57:50 41° 70° (ENE) 18:01:50 437.475
RS-15 24 Nov 17:59:37 18:11:14 51° 113° (ESE) 18:22:45 29.354- 29.394
NO-84 24 Nov 18:03:23 18:07:02 32° 4° (N) 18:10:51 435.350 FM
XW-2C 24 Nov 18:06:01 18:09:27 34° 263° (W) 18:12:55 145.795 - 145.815
KKS-1 24 Nov 18:06:27 18:10:53 67° 288° (WNW) 18:15:17 437.445
XW-2A 24 Nov 18:06:51 18:08:48 15° 64° (ENE) 18:10:46 145.665 - 145.685
YUBILEINY 24 Nov 18:07:08 18:14:42 33° 278° (W) 18:22:14 435.215
CUTE-I 24 Nov 18:07:37 18:12:53 55° 259° (W) 18:18:12 437.470
HO-68 24 Nov 18:11:44 18:18:56 80° 70° (ENE) 18:26:10 435.675
LilacSat-2 24 Nov 18:12:48 18:16:04 28° 265° (W) 18:19:21 437.200
XW-2F 24 Nov 18:13:26 18:16:45 30° 264° (W) 18:20:07 145.980 - 146.000
AAUSAT CUBESAT 2 24 Nov 18:13:57 18:17:02 21° 63° (ENE) 18:20:09 437.432
SEEDS 24 Nov 18:17:13 18:21:12 45° 71° (ENE) 18:25:13 437.485
STARS 24 Nov 18:20:18 18:24:42 74° 102° (ESE) 18:29:04 437.465
ZACube-1 24 Nov 18:23:50 18:26:44 18° 62° (ENE) 18:29:37 437.345
KAITUO 1B 24 Nov 18:35:25 18:38:23 22° 266° (W) 18:41:22 145.475/437.950
UWE-3 24 Nov 18:40:17 18:44:27 45° 71° (ENE) 18:48:32 435.000/436.395/437.385
CUBESAT XI-V 24 Nov 18:40:57 18:42:26 11° 306° (NW) 18:43:55 437.345
AO-73 24 Nov 19:11:11 19:15:14 44° 70° (ENE) 19:19:13 145.935
nSIGHT-1 24 Nov 19:13:35 19:15:13 13° 136° (SE) 19:16:51 .
STRAND 1 24 Nov 19:22:52 19:27:40 38° 97° (E) 19:32:24 437.568
Oscar 11 24 Nov 19:23:24 19:27:26 41° 69° (ENE) 19:31:30 .
CUBEBUG 2 24 Nov 19:27:37 19:31:50 38° 263° (W) 19:35:57 437.445
CUTE 1.7 + AOD 2 24 Nov 19:30:36 19:33:51 21° 268° (W) 19:37:08 437.475
XW-2A 24 Nov 19:38:03 19:41:11 40° 261° (W) 19:44:22 145.665 - 145.685
NO-84 24 Nov 19:40:52 19:44:58 57° 24° (NNE) 19:49:11 435.350 FM
DELFI C3 24 Nov 19:45:52 19:48:24 17° 62° (ENE) 19:50:57 145.870
KKS-1 24 Nov 19:46:06 19:46:35 10° 307° (NW) 19:47:04 437.445
AAUSAT CUBESAT 2 24 Nov 19:48:15 19:52:12 44° 262° (W) 19:56:14 437.432
SEEDS 24 Nov 19:54:02 19:57:06 20° 269° (W) 20:00:12 437.485
STARS 24 Nov 19:57:56 20:00:29 15° 302° (WNW) 20:03:03 437.465
ZACube-1 24 Nov 19:58:29 20:02:40 54° 260° (W) 20:06:48 437.345
HO-68 24 Nov 20:01:57 20:07:27 23° 270° (W) 20:12:58 435.675
SO-50 24 Nov 20:02:59 20:04:34 12° 108° (ESE) 20:06:09 436.795
FO-29 24 Nov 20:05:01 20:12:06 36° 92° (E) 20:18:45 435.910
Max Valier Satellite 24 Nov 20:05:26 20:07:48 17° 63° (ENE) 20:10:10 145.860
ISS 24 Nov 20:08:02 20:10:56 29° 144° (SE) 20:13:51 437.550
RS-15 24 Nov 20:11:17 20:23:35 65° 318° (NW) 20:35:41 29.354- 29.394
UWE-3 24 Nov 20:17:47 20:21:06 21° 268° (W) 20:24:23 435.000/436.395/437.385
nSIGHT-1 24 Nov 20:47:45 20:50:57 67° 153° (SSE) 20:54:09 .
AO-73 24 Nov 20:48:30 20:51:40 20° 268° (W) 20:54:48 145.935
Oscar 11 24 Nov 21:00:22 21:03:45 22° 268° (W) 21:07:09 .
STRAND 1 24 Nov 21:02:13 21:06:46 33° 296° (WNW) 21:11:17 437.568
ESTCUBE 1 24 Nov 21:12:25 21:13:57 12° 55° (NE) 21:15:30 437.505/2401.250
NO-84 24 Nov 21:18:20 21:22:16 38° 223° (SW) 21:26:13 435.350 FM
DELFI C3 24 Nov 21:18:51 21:22:45 55° 260° (W) 21:26:41 145.870
EO-88 24 Nov 21:27:05 21:30:42 85° 260° (W) 21:34:22 145.990 - 145.960
Max Valier Satellite 24 Nov 21:37:48 21:41:18 44° 261° (W) 21:44:50 145.860
SO-50 24 Nov 21:39:47 21:44:15 82° 129° (SE) 21:48:48 436.795
LO-87 24 Nov 21:40:23 21:43:02 20° 65° (ENE) 21:45:41 145.935 - 145.965
ISS 24 Nov 21:43:58 21:47:15 69° 343° (NNW) 21:50:31 437.550
O/OREOS (USA 219) 24 Nov 21:45:09 21:49:26 38° 56° (NE) 21:53:40 437.305
FO-29 24 Nov 21:49:46 21:57:29 60° 292° (WNW) 22:04:44 435.910
PRISM 24 Nov 21:50:19 21:52:43 15° 90° (E) 21:55:07 437.425
UNISAT 6 24 Nov 21:59:31 22:03:42 51° 99° (E) 22:07:50 437.425
TIGRISAT 24 Nov 22:02:48 22:06:58 51° 100° (E) 22:11:06 435.000
nSIGHT-1 24 Nov 22:24:09 22:27:17 47° 353° (N) 22:30:26 .
RS-15 24 Nov 22:27:40 22:38:51 38° 349° (N) 22:49:43 29.354- 29.394
ESTCUBE 1 24 Nov 22:45:31 22:49:59 78° 74° (ENE) 22:54:31 437.505/2401.250
VELOX 1 24 Nov 22:50:40 22:53:43 18° 60° (ENE) 22:56:47 145.980
PCSat 24 Nov 23:11:51 23:16:33 31° 111° (ESE) 23:21:17 145.827
LO-87 24 Nov 23:12:54 23:16:14 35° 263° (W) 23:19:34 145.935 - 145.965
QB50P2 24 Nov 23:16:57 23:19:44 17° 91° (E) 23:22:30 145.880/145.840
SPROUT 24 Nov 23:17:05 23:21:08 43° 70° (ENE) 23:25:11 437.525
ISS 24 Nov 23:20:49 23:24:00 46° 3° (N) 23:27:11 437.550
SO-50 24 Nov 23:21:41 23:25:15 22° 328° (NNW) 23:28:53 436.795
PRISM 24 Nov 23:24:16 23:28:23 60° 288° (WNW) 23:32:28 437.425
O/OREOS (USA 219) 24 Nov 23:24:49 23:28:42 28° 255° (WSW) 23:32:33 437.305
DX 1 24 Nov 23:25:57 23:27:13 11° 55° (NE) 23:28:30 434.975-435.025
AIST 2D 24 Nov 23:27:47 23:31:17 55° 100° (E) 23:34:45 435.315
FO-29 24 Nov 23:36:14 23:40:56 18° 314° (NW) 23:45:32 435.910
UNISAT 6 24 Nov 23:37:02 23:40:04 19° 298° (WNW) 23:43:05 437.425
TIGRISAT 24 Nov 23:40:17 23:43:20 19° 298° (WNW) 23:46:21 435.000
50 SAT 24 Nov 23:53:43 23:55:27 14° 63° (ENE) 23:57:12 437.505
UKube-1 24 Nov 23:58:30 00:00:52 15° 58° (ENE) 00:03:14 .
DUCHIFAT 1 24 Nov 23:59:31 00:03:17 31° 96° (E) 00:07:00 145.980
nSIGHT-1 25 Nov 00:00:38 00:03:49 57° 13° (NNE) 00:07:00 .
EO-79 25 Nov 00:11:34 00:15:41 54° 100° (E) 00:19:47 145.935-145.965
NANOSAT C BR1 25 Nov 00:12:10 00:16:15 48° 99° (E) 00:20:17 145.865
ESTCUBE 1 25 Nov 00:25:14 00:27:21 13° 272° (W) 00:29:29 437.505/2401.250
VELOX 1 25 Nov 00:25:20 00:29:44 61° 258° (WSW) 00:34:10 145.980
POLYITAN 1 25 Nov 00:27:57 00:32:10 80° 102° (ESE) 00:36:22 437.675
BUGSAT 1 25 Nov 00:37:04 00:40:06 20° 93° (E) 00:43:06 437.445
Oscar 19 25 Nov 00:40:07 00:43:08 15° 88° (E) 00:46:09 437.125/150
RS-15 25 Nov 00:43:41 00:55:08 43° 23° (NNE) 01:06:02 29.354- 29.394
QB50P2 25 Nov 00:51:44 00:55:51 53° 289° (WNW) 00:59:54 145.880/145.840
SPROUT 25 Nov 00:53:53 00:57:12 22° 267° (W) 01:00:32 437.525
PCSat 25 Nov 00:54:28 00:59:44 51° 311° (NW) 01:05:03 145.827
ISS 25 Nov 00:57:23 01:00:41 87° 192° (SSW) 01:03:56 437.550
DX 1 25 Nov 00:58:15 01:02:38 76° 73° (ENE) 01:07:02 434.975-435.025
ITUPSAT 1 25 Nov 01:00:03 01:01:34 11° 53° (NE) 01:03:04 437.325
AIST 2D 25 Nov 01:02:18 01:04:02 13° 298° (WNW) 01:05:45 435.315
SO-50 25 Nov 01:06:08 01:07:24 11° 353° (N) 01:08:41 436.795
50 SAT 25 Nov 01:24:06 01:27:11 42° 260° (W) 01:30:18 437.505
UKube-1 25 Nov 01:31:59 01:36:18 78° 255° (WSW) 01:40:41 .
DUCHIFAT 1 25 Nov 01:35:18 01:38:52 28° 294° (WNW) 01:42:25 145.980
Gurwin Techsat 1B 25 Nov 01:35:30 01:40:20 34° 96° (E) 01:45:08 435.225
nSIGHT-1 25 Nov 01:36:58 01:40:00 40° 212° (SSW) 01:43:01 .
BEESAT 3 25 Nov 01:40:17 01:43:45 29° 117° (ESE) 01:47:14 437.485
EO-79 25 Nov 01:48:12 01:51:05 18° 299° (WNW) 01:53:56 145.935-145.965
NANOSAT C BR1 25 Nov 01:48:36 01:51:38 20° 298° (WNW) 01:54:39 145.865
AO-91 25 Nov 01:58:21 02:02:56 73° 102° (ESE) 02:06:59 145.960
POLYITAN 1 25 Nov 02:05:22 02:07:22 13° 302° (WNW) 02:09:21 437.675
MOZHAYETS 4 25 Nov 02:08:46 02:13:09 49° 70° (ENE) 02:17:35
BUGSAT 1 25 Nov 02:11:50 02:15:38 40° 291° (WNW) 02:19:23 437.445
AO-7 25 Nov 02:14:54 02:19:54 17° 86° (E) 02:24:51 .
Oscar 19 25 Nov 02:17:54 02:23:05 81° 287° (WNW) 02:28:16 437.125/150
BEESAT 25 Nov 02:21:26 02:26:04 54° 70° (ENE) 02:30:44 436.000
CUBESAT XI-V 25 Nov 02:31:47 02:35:25 23° 63° (ENE) 02:39:04 437.345
ITUPSAT 1 25 Nov 02:33:46 02:38:31 68° 72° (ENE) 02:43:17 437.325
ISS 25 Nov 02:34:24 02:36:47 19° 221° (SW) 02:39:10 437.550
DX 1 25 Nov 02:37:17 02:39:20 13° 271° (W) 02:41:25 434.975-435.025
PCSat 25 Nov 02:41:03 02:44:26 16° 335° (NNW) 02:47:50 145.827
ITAMSAT 1 25 Nov 02:41:59 02:44:05 12° 86° (E) 02:46:10 435.822/435.867
SO-50 25 Nov 02:47:31 02:49:52 14° 18° (NNE) 02:52:13 436.795
M-CUBED/EXP-1 PRIME 25 Nov 02:54:43 02:58:55 34° 102° (ESE) 03:03:09 437.505
RS-15 25 Nov 02:57:10 03:09:13 90° 46° (NE) 03:20:35 29.354- 29.394
AO-85 25 Nov 02:57:30 03:00:22 20° 113° (ESE) 03:03:20 145.980
BEESAT 2 25 Nov 03:00:51 03:04:47 55° 123° (ESE) 03:08:46 435.950
Gurwin Techsat 1B 25 Nov 03:15:24 03:20:20 39° 295° (WNW) 03:25:15 435.225
BEESAT 3 25 Nov 03:17:25 03:21:11 38° 317° (NW) 03:24:58 437.485
YUBILEINY 25 Nov 03:24:16 03:28:28 14° 70° (ENE) 03:32:41 435.215
KKS-1 25 Nov 03:32:21 03:35:55 24° 62° (ENE) 03:39:29 437.445
AO-91 25 Nov 03:36:03 03:38:42 15° 303° (WNW) 03:41:11 145.960
STARS 25 Nov 03:46:15 03:48:42 15° 58° (ENE) 03:51:10 437.465
MOZHAYETS 4 25 Nov 03:47:09 03:50:35 21° 268° (W) 03:54:02
Oscar 19 25 Nov 03:58:51 04:01:38 15° 306° (NW) 04:04:25 437.125/150
BEESAT 25 Nov 04:00:35 04:04:10 21° 268° (W) 04:07:45 436.000
AO-7 25 Nov 04:05:44 04:14:08 73° 107° (ESE) 04:22:29 .
CUBESAT XI-V 25 Nov 04:08:04 04:12:31 47° 261° (W) 04:17:00 437.345
ITUPSAT 1 25 Nov 04:13:48 04:16:49 17° 270° (W) 04:19:51 437.325
ITAMSAT 1 25 Nov 04:19:07 04:24:22 82° 104° (ESE) 04:29:34 435.822/435.867
SO-50 25 Nov 04:27:15 04:31:35 38° 41° (NE) 04:35:57 436.795
M-CUBED/EXP-1 PRIME 25 Nov 04:29:06 04:33:14 34° 299° (WNW) 04:37:25 437.505
PCSat 25 Nov 04:29:14 04:30:16 10° 1° (N) 04:31:17 145.827
AO-85 25 Nov 04:36:32 04:40:23 51° 314° (NW) 04:44:29 145.980
BEESAT 2 25 Nov 04:39:25 04:42:47 25° 323° (NW) 04:46:11 435.950
DOVE 4 25 Nov 04:55:44 05:00:37 41° 96° (E) 05:05:16 437.250
BEESAT 3 25 Nov 04:58:24 04:59:48 11° 339° (NNW) 05:01:11 437.485
STRAND 1 25 Nov 05:06:19 05:08:59 14° 54° (NE) 05:11:41 437.568
KKS-1 25 Nov 05:07:54 05:12:13 45° 261° (W) 05:16:33 437.445
RS-15 25 Nov 05:10:44 05:20:07 29° 258° (WSW) 05:29:08 29.354- 29.394
YUBILEINY 25 Nov 05:14:47 05:23:25 65° 92° (E) 05:32:07 435.215
STARS 25 Nov 05:20:01 05:24:27 79° 256° (WSW) 05:28:55 437.465
XW-2C 25 Nov 05:34:54 05:37:37 18° 92° (E) 05:40:20 145.795 - 145.815
HO-68 25 Nov 05:38:33 05:40:46 11° 82° (E) 05:43:00 435.675
XW-2F 25 Nov 05:41:33 05:44:24 20° 93° (E) 05:47:16 145.980 - 146.000
LilacSat-2 25 Nov 05:41:50 05:44:58 23° 94° (E) 05:48:05 437.200
AO-7 25 Nov 05:59:07 06:06:19 34° 308° (NW) 06:13:31 .
ITAMSAT 1 25 Nov 05:59:47 06:03:12 18° 304° (NW) 06:06:36 435.822/435.867
KAITUO 1B 25 Nov 06:01:52 06:05:04 26° 95° (E) 06:08:17 145.475/437.950
SO-50 25 Nov 06:07:45 06:12:05 39° 240° (WSW) 06:16:27 436.795
PCSat 25 Nov 06:12:23 06:16:02 18° 28° (NNE) 06:19:40 145.827
AO-85 25 Nov 06:19:33 06:21:47 14° 337° (NNW) 06:24:06 145.980
CUTE-I 25 Nov 06:20:41 06:25:49 45° 98° (E) 06:30:56 437.470
FO-29 25 Nov 06:21:19 06:27:02 26° 53° (NE) 06:33:05 435.910
XW-2D 25 Nov 06:27:17 06:31:07 71° 102° (ESE) 06:34:56 145.860 - 145.880
DOVE 4 25 Nov 06:33:39 06:38:08 31° 296° (WNW) 06:42:27 437.250
NUDT-PHONESAT 25 Nov 06:38:46 06:42:28 64° 101° (E) 06:46:10 437.300
STRAND 1 25 Nov 06:42:13 06:47:22 79° 73° (ENE) 06:52:32 437.568
XW-2B 25 Nov 06:42:17 06:46:08 81° 285° (WNW) 06:49:57 145.730 - 145.750
XW-2C 25 Nov 07:08:22 07:11:58 40° 289° (WNW) 07:15:34 145.795 - 145.815
CUTE 1.7 + AOD 2 25 Nov 07:10:13 07:14:23 50° 99° (E) 07:18:33 437.475
YUBILEINY 25 Nov 07:13:02 07:20:51 35° 296° (WNW) 07:28:46 435.215
CUBEBUG 2 25 Nov 07:14:20 07:18:06 32° 96° (E) 07:21:49 437.445
XW-2F 25 Nov 07:15:07 07:18:38 37° 291° (WNW) 07:22:09 145.980 - 146.000
LilacSat-2 25 Nov 07:15:50 07:19:17 32° 291° (WNW) 07:22:44 437.200
HO-68 25 Nov 07:22:53 07:30:02 61° 102° (ESE) 07:37:06 435.675
AAUSAT CUBESAT 2 25 Nov 07:26:40 07:29:57 22° 92° (E) 07:33:12 437.432
UNISAT 6 25 Nov 07:29:02 07:29:57 11° 55° (NE) 07:30:51 437.425
TIGRISAT 25 Nov 07:32:20 07:33:06 10° 55° (NE) 07:33:51 435.000
SEEDS 25 Nov 07:32:20 07:36:32 53° 100° (E) 07:40:41 437.485
KAITUO 1B 25 Nov 07:35:46 07:39:02 28° 292° (WNW) 07:42:18 145.475/437.950
ZACube-1 25 Nov 07:43:11 07:46:21 21° 92° (E) 07:49:32 437.345
AO-7 25 Nov 07:54:14 07:56:34 11° 333° (NNW) 07:58:55 .
PCSat 25 Nov 07:55:12 08:00:35 59° 51° (NE) 08:05:56 145.827
CUTE-I 25 Nov 08:01:02 08:05:43 31° 297° (WNW) 08:10:21 437.470
UWE-3 25 Nov 08:01:58 08:06:04 58° 100° (E) 08:10:10 435.000/436.395/437.385
XW-2D 25 Nov 08:03:07 08:04:46 12° 300° (WNW) 08:06:25 145.860 - 145.880
FO-29 25 Nov 08:04:09 08:11:08 85° 256° (WSW) 08:18:54 435.910
NUDT-PHONESAT 25 Nov 08:14:06 08:15:50 13° 299° (WNW) 08:17:34 437.300
BEESAT 3 25 Nov 08:16:15 08:18:29 14° 27° (NNE) 08:20:41 437.485
STRAND 1 25 Nov 08:24:06 08:27:10 16° 272° (W) 08:30:15 437.568
XW-2A 25 Nov 08:27:58 08:31:20 69° 286° (WNW) 08:34:42 145.665 - 145.685
AO-73 25 Nov 08:30:53 08:34:59 56° 100° (E) 08:39:07 145.935
Oscar 11 25 Nov 08:42:24 08:46:39 51° 100° (E) 08:50:52 .
PRISM 25 Nov 08:42:48 08:45:42 19° 61° (ENE) 08:48:38 437.425
CUTE 1.7 + AOD 2 25 Nov 08:46:46 08:49:54 20° 297° (WNW) 08:53:01 437.475
CUBEBUG 2 25 Nov 08:51:07 08:54:38 27° 294° (WNW) 08:58:08 437.445
DELFI C3 25 Nov 08:52:52 08:55:09 15° 89° (E) 08:57:26 145.870
UNISAT 6 25 Nov 09:01:23 09:05:53 72° 73° (ENE) 09:10:18 437.425
AAUSAT CUBESAT 2 25 Nov 09:01:36 09:05:33 41° 290° (WNW) 09:09:29 437.432
TIGRISAT 25 Nov 09:04:31 09:09:01 71° 73° (ENE) 09:13:25 435.000
Max Valier Satellite 25 Nov 09:05:00 09:06:42 13° 89° (E) 09:08:24 145.860
SEEDS 25 Nov 09:08:51 09:11:50 19° 298° (WNW) 09:14:50 437.485
HO-68 25 Nov 09:11:07 09:17:25 34° 303° (WNW) 09:23:40 435.675
ZACube-1 25 Nov 09:18:54 09:22:49 41° 290° (WNW) 09:26:46 437.345
BEESAT 2 25 Nov 09:37:43 09:40:50 21° 34° (NE) 09:43:56 435.950
PCSat 25 Nov 09:39:10 09:43:38 26° 250° (WSW) 09:48:02 145.827
UWE-3 25 Nov 09:39:29 09:42:07 17° 299° (WNW) 09:44:44 435.000/436.395/437.385
AO-85 25 Nov 09:43:24 09:46:23 17° 28° (NNE) 09:49:29 145.980
POLYITAN 1 25 Nov 09:50:49 09:52:39 13° 58° (ENE) 09:54:30 437.675
FO-29 25 Nov 09:52:33 09:57:22 19° 277° (W) 10:02:30 435.910
BEESAT 3 25 Nov 09:52:53 09:56:49 60° 48° (NE) 10:00:41 437.485
AIST 2D 25 Nov 10:05:18 10:08:27 34° 70° (ENE) 10:11:39 435.315
AO-73 25 Nov 10:08:07 10:10:50 17° 298° (WNW) 10:13:34 145.935
QB50P2 25 Nov 10:12:50 10:16:05 22° 63° (ENE) 10:19:20 145.880/145.840
PRISM 25 Nov 10:16:35 10:20:37 51° 259° (W) 10:24:43 437.425
FALCONSAT 3 25 Nov 10:17:01 10:18:05 11° 181° (S) 10:19:10 435.103
Oscar 11 25 Nov 10:19:17 10:22:27 20° 298° (WNW) 10:25:36 .
EO-88 25 Nov 10:25:12 10:28:52 74° 102° (ESE) 10:32:31 145.990 - 145.960
DELFI C3 25 Nov 10:26:19 10:30:15 56° 287° (WNW) 10:34:09 145.870
ESTCUBE 1 25 Nov 10:35:48 10:37:50 13° 87° (E) 10:39:52 437.505/2401.250
LO-87 25 Nov 10:36:46 10:38:35 13° 90° (E) 10:40:25 145.935 - 145.965
Max Valier Satellite 25 Nov 10:37:14 10:40:51 55° 287° (WNW) 10:44:28 145.860
UNISAT 6 25 Nov 10:40:40 10:43:04 14° 271° (W) 10:45:26 437.425
TIGRISAT 25 Nov 10:43:44 10:46:10 14° 271° (W) 10:48:34 435.000
DUCHIFAT 1 25 Nov 10:54:26 10:58:19 38° 69° (ENE) 11:02:13 145.980
EO-79 25 Nov 11:07:01 11:11:13 65° 73° (ENE) 11:15:25 145.935-145.965
NANOSAT C BR1 25 Nov 11:07:17 11:11:26 58° 72° (ENE) 11:15:35 145.865
BEESAT 2 25 Nov 11:14:57 11:19:00 73° 234° (SW) 11:22:59 435.950
AO-85 25 Nov 11:23:03 11:27:37 61° 48° (NE) 11:32:32 145.980
AO-91 25 Nov 11:23:21 11:26:46 17° 58° (ENE) 11:30:07 145.960
POLYITAN 1 25 Nov 11:23:34 11:27:49 86° 255° (WSW) 11:32:04 437.675
Gurwin Techsat 1B 25 Nov 11:23:36 11:26:22 14° 53° (NE) 11:29:08 435.225
BUGSAT 1 25 Nov 11:29:57 11:33:21 25° 65° (ENE) 11:36:44 437.445
AO-7 25 Nov 11:31:20 11:34:19 12° 29° (NNE) 11:37:19 .
BEESAT 3 25 Nov 11:31:20 11:33:56 17° 247° (WSW) 11:36:30 437.485
AIST 2D 25 Nov 11:39:19 11:41:45 18° 268° (W) 11:44:11 435.315
QB50P2 25 Nov 11:47:33 11:51:37 44° 261° (W) 11:55:41 145.880/145.840
Oscar 19 25 Nov 12:00:02 12:04:34 33° 64° (ENE) 12:09:08 437.125/150
EO-88 25 Nov 12:00:48 12:01:58 11° 300° (WNW) 12:03:08 145.990 - 145.960
O/OREOS (USA 219) 25 Nov 12:02:04 12:05:31 21° 102° (ESE) 12:08:57 437.305
LO-87 25 Nov 12:08:51 12:12:16 47° 288° (WNW) 12:15:40 145.935 - 145.965
ESTCUBE 1 25 Nov 12:10:39 12:15:13 81° 286° (WNW) 12:19:46 437.505/2401.250
VELOX 1 25 Nov 12:12:07 12:15:22 19° 92° (E) 12:18:34 145.980
M-CUBED/EXP-1 PRIME 25 Nov 12:13:22 12:13:50 10° 47° (NE) 12:14:19 437.505
DUCHIFAT 1 25 Nov 12:30:42 12:34:06 23° 266° (W) 12:37:30 145.980
SPROUT 25 Nov 12:34:18 12:38:26 48° 99° (E) 12:42:32 437.525
NANOSAT C BR1 25 Nov 12:44:56 12:47:30 16° 270° (W) 12:50:05 145.865
EO-79 25 Nov 12:45:07 12:47:24 14° 271° (W) 12:49:42 145.935-145.965
AO-91 25 Nov 12:57:06 13:02:32 90° 73° (ENE) 13:07:51 145.960
Gurwin Techsat 1B 25 Nov 13:00:09 13:05:28 76° 73° (ENE) 13:10:49 435.225
AO-85 25 Nov 13:04:02 13:07:46 23° 245° (WSW) 13:11:41 145.980
BUGSAT 1 25 Nov 13:04:42 13:08:33 36° 262° (W) 13:12:24 437.445
UKube-1 25 Nov 13:16:40 13:18:46 13° 89° (E) 13:20:52 .
AO-7 25 Nov 13:17:24 13:24:44 37° 54° (NE) 13:32:07 .
YUBILEINY 25 Nov 13:27:26 13:28:24 10° 39° (NE) 13:29:23 435.215
Oscar 19 25 Nov 13:39:04 13:43:49 38° 263° (W) 13:48:37 437.125/150
O/OREOS (USA 219) 25 Nov 13:40:04 13:44:34 52° 301° (WNW) 13:49:05 437.305
M-CUBED/EXP-1 PRIME 25 Nov 13:43:38 13:47:21 70° 68° (ENE) 13:51:26 437.505
VELOX 1 25 Nov 13:47:45 13:52:05 51° 290° (WNW) 13:56:23 145.980
ESTCUBE 1 25 Nov 13:49:27 13:51:17 12° 304° (NW) 13:53:06 437.505/2401.250
ITAMSAT 1 25 Nov 14:02:24 14:06:53 30° 62° (ENE) 14:11:24 435.822/435.867
50 SAT 25 Nov 14:09:09 14:12:23 87° 108° (ESE) 14:15:35 437.505
SPROUT 25 Nov 14:10:52 14:14:01 20° 298° (WNW) 14:17:09 437.525
NO-84 25 Nov 14:12:13 14:15:40 42° 138° (SE) 14:19:23 435.350 FM
DX 1 25 Nov 14:18:35 14:23:00 83° 104° (ESE) 14:27:22 434.975-435.025
DOVE 4 25 Nov 14:30:27 14:32:13 12° 52° (NE) 14:33:58 437.250
ITUPSAT 1 25 Nov 14:32:09 14:34:18 13° 88° (E) 14:36:26 437.325
AO-91 25 Nov 14:36:30 14:39:35 15° 273° (W) 14:42:38 145.960
Gurwin Techsat 1B 25 Nov 14:42:35 14:46:00 17° 271° (W) 14:49:28 435.225
UKube-1 25 Nov 14:50:57 14:55:18 73° 287° (WNW) 14:59:36 .
